Theta_e
341 339 339 338 338 337 336 335 334 333 330 325 319 314 312 312 313 312 313 315 316 317 318 322 322 320 320 320 322 323 325 327 330 333 335 335 336 336 337 337 337 337 337 337 337 337 336 335 335 335 334 334 331 329 329 329 329 330 331 330 329 328 330 331 332 333 334 335 335 335 335 334 333 330 324 320 321 321 320 323 326 324 323 325 326
341 340 339 338 338 337 336 335 334 334 332 327 320 315 312 311 313 313 313 315 316 318 320 323 325 325 326 327 328 330 331 333 335 335 335 336 337 337 338 337 337 337 337 337 337 336 335 334 334 334 333 332 327 324 328 330 331 332 332 332 331 329 328 328 327 328 329 329 330 330 331 331 329 326 319 317 320 319 319 322 323 319 318 321 323
339 339 338 338 338 337 337 336 335 334 334 330 322 315 312 312 312 312 313 315 317 319 321 324 327 329 330 332 333 334 335 335 335 335 335 336 337 338 338 337 337 337 337 337 336 335 334 334 334 334 333 330 325 325 329 331 331 332 333 333 331 330 330 328 326 324 324 324 324 324 325 324 324 325 319 318 321 317 315 317 318 314 315 318 321
336 336 337 338 337 337 337 336 335 334 334 332 324 316 312 311 312 312 312 315 318 320 322 325 328 331 332 333 334 335 334 334 334 335 335 335 337 337 337 337 336 336 336 336 336 335 335 335 334 334 333 329 326 325 328 329 330 332 333 334 333 332 332 330 328 323 320 321 322 321 321 317 318 322 316 317 319 315 313 313 314 313 314 316 318
335 335 336 337 338 337 337 336 335 334 334 333 326 318 313 311 311 312 312 314 317 320 323 325 328 331 332 334 334 334 334 333 333 334 333 334 335 335 336 336 336 336 336 336 336 336 335 334 334 334 333 332 327 324 326 328 329 332 334 334 333 333 332 332 330 321 317 319 319 319 317 313 314 316 310 312 313 311 312 311 312 313 314 314 315
334 333 335 336 337 337 336 336 335 335 334 333 329 322 316 312 311 311 312 314 317 320 323 326 328 330 333 334 333 333 333 333 333 333 333 333 333 333 334 334 335 334 335 335 334 333 331 330 331 331 331 329 324 324 327 329 330 332 333 333 333 332 332 333 328 320 319 319 317 316 314 311 314 317 310 307 309 309 310 310 311 312 312 312 313
333 331 334 335 336 336 336 336 335 335 333 333 331 327 319 313 311 311 312 313 316 319 322 325 327 329 332 332 332 332 332 332 333 334 334 333 332 332 332 331 331 331 332 331 329 327 323 319 319 321 320 318 321 326 329 329 330 331 331 331 330 329 329 328 324 320 322 321 316 314 312 310 313 314 309 306 308 308 308 308 309 309 310 311 311
334 331 333 335 336 336 336 335 335 334 333 333 333 330 323 314 311 311 312 313 315 317 321 324 325 327 329 330 330 331 332 333 334 334 334 334 332 330 328 326 326 326 326 324 322 319 314 310 310 311 310 312 322 328 329 329 330 329 328 326 323 322 324 323 322 323 323 320 315 311 309 308 308 307 306 308 309 307 307 307 307 308 308 309 309
335 332 333 335 335 335 335 334 335 334 333 333 333 332 326 317 311 311 312 312 313 316 319 321 323 324 327 328 329 331 332 333 334 335 334 333 329 326 322 320 320 319 317 315 313 310 308 308 308 308 308 315 325 328 329 330 329 327 323 320 319 320 321 321 323 324 322 319 313 309 308 307 307 307 311 313 310 309 308 308 308 307 307 308 308
335 332 333 334 334 335 335 334 335 334 334 333 333 331 328 319 312 311 312 312 313 314 317 319 320 322 325 326 328 330 331 333 334 334 332 330 327 322 318 315 314 312 310 309 308 308 308 307 308 307 309 320 327 328 329 329 327 324 321 320 321 321 321 321 321 321 319 316 311 308 308 307 307 311 319 320 316 314 311 309 311 312 310 308 308
335 333 334 334 334 334 334 334 334 333 333 332 332 331 329 323 313 310 311 312 313 313 315 318 319 320 322 325 327 329 331 333 332 332 330 327 324 319 315 312 310 309 308 308 308 308 308 307 308 307 313 324 327 328 328 328 327 323 322 322 323 323 323 321 319 317 315 311 309 308 308 308 308 313 320 322 322 321 317 312 315 320 318 314 310
334 333 333 333 333 333 334 334 334 333 333 332 332 331 330 325 315 310 311 312 313 313 313 316 318 320 321 324 326 329 332 333 332 331 327 323 319 315 312 310 309 308 309 309 308 308 308 308 307 309 319 327 328 328 328 327 326 322 323 323 323 323 323 322 318 313 311 309 308 309 309 310 310 313 316 317 319 320 319 314 317 324 324 322 317
334 333 333 333 332 332 333 333 333 333 332 332 331 331 330 327 317 311 311 312 313 313 313 314 316 319 321 322 324 327 331 331 331 329 323 320 315 312 311 309 309 309 309 309 309 308 308 309 310 315 324 328 328 329 329 327 324 321 322 322 322 322 322 320 315 311 310 309 309 311 312 312 313 314 314 315 315 316 318 315 316 320 321 321 317
334 333 333 332 332 333 332 333 333 332 332 331 331 331 330 327 318 311 310 312 313 314 313 313 315 317 320 320 320 323 325 326 329 326 321 318 313 311 310 309 309 309 309 309 309 309 309 311 315 320 325 327 328 329 329 327 323 321 321 322 323 322 321 318 313 310 309 310 311 312 313 314 315 315 317 319 318 315 316 313 313 314 313 313 311
333 333 333 333 332 332 332 332 331 331 331 330 330 329 327 326 319 311 310 311 313 313 313 313 313 315 317 318 318 320 322 323 326 325 319 316 312 310 309 309 310 309 309 309 309 309 309 313 319 324 326 327 329 329 329 327 323 322 322 323 323 321 320 317 314 312 311 310 312 313 313 314 316 319 321 324 321 314 312 312 311 310 310 310 309
333 333 333 333 332 331 331 330 329 329 329 328 327 326 326 325 319 312 309 310 312 313 314 313 313 313 314 315 317 320 321 321 323 322 318 315 312 310 309 309 309 309 310 309 310 310 310 315 323 326 327 328 329 330 329 327 324 324 324 323 321 321 319 317 315 313 312 311 312 313 313 313 315 317 318 319 317 314 313 311 311 311 310 310 310
333 334 334 333 332 331 329 327 327 326 326 326 325 324 325 324 318 311 309 310 311 313 313 313 314 313 313 314 316 318 318 318 319 320 317 313 311 310 310 310 310 310 310 310 310 310 311 317 324 327 326 327 329 330 328 326 326 326 324 323 322 321 319 318 317 314 312 311 312 312 313 313 313 314 314 314 314 313 312 311 312 311 311 311 310
335 334 334 333 332 330 328 325 324 323 323 323 323 323 324 323 318 311 309 309 310 312 313 313 314 314 313 313 315 316 317 317 318 317 314 312 310 310 310 310 310 310 310 310 310 310 311 316 324 327 326 327 328 329 328 326 326 325 324 324 324 323 321 321 318 315 313 312 312 312 312 313 313 313 313 313 313 313 313 312 312 311 311 311 310
337 334 334 333 331 329 327 323 321 321 321 321 321 321 322 320 316 311 309 309 310 311 312 312 313 314 314 313 313 314 316 316 317 317 315 313 311 310 310 310 310 311 311 310 310 310 311 315 322 326 327 327 328 329 327 325 325 325 325 326 326 325 325 324 321 318 318 316 315 314 313 313 313 312 313 312 312 313 313 313 312 312 311 311 311
338 334 334 333 331 328 325 322 319 319 319 319 319 319 319 319 315 311 310 309 310 310 311 312 312 313 313 314 313 313 314 315 317 317 317 315 312 311 310 311 311 311 311 311 310 310 311 313 320 326 327 328 329 329 326 323 324 325 325 326 326 327 327 326 325 323 322 321 319 317 316 315 314 313 313 313 312 312 311 312 312 312 312 311 311
339 334 334 333 330 326 322 320 319 318 318 317 317 317 318 316 314 312 310 309 309 309 310 311 311 312 313 314 313 313 313 314 316 316 317 316 315 313 311 311 311 311 311 311 310 310 310 312 318 323 326 328 329 329 327 325 325 324 325 326 327 328 328 328 327 325 324 323 321 320 319 318 317 314 315 315 314 312 311 311 310 311 312 311 311
338 335 334 333 330 325 321 319 318 318 317 317 317 316 317 315 314 312 311 310 310 310 310 310 311 311 312 313 313 313 314 313 314 315 317 317 317 315 314 313 311 312 311 311 310 310 310 310 314 320 325 327 329 330 329 327 326 325 326 327 328 329 329 328 328 327 327 326 323 321 320 319 319 318 318 318 316 314 312 311 310 310 310 310 311
337 335 335 332 329 324 321 319 318 317 316 316 317 316 316 314 314 313 312 311 310 310 310 310 310 311 311 312 312 313 313 313 313 314 316 317 318 318 317 316 314 313 312 311 311 310 310 309 311 316 321 326 329 331 330 329 327 327 327 328 329 330 329 329 330 330 329 328 326 323 322 321 321 321 321 320 318 315 314 312 311 310 310 310 309
336 335 335 332 329 323 321 319 317 316 315 316 316 315 314 314 314 313 313 312 311 311 311 311 310 311 311 311 311 312 312 313 313 313 314 315 317 318 319 318 316 315 314 313 312 310 309 309 310 312 316 322 328 331 330 330 328 328 329 329 329 330 329 330 331 331 330 329 328 325 323 323 322 322 322 321 320 318 316 313 312 311 309 309 309
335 335 335 333 329 323 321 319 317 316 314 314 314 314 313 313 313 313 314 313 313 313 312 312 312 311 311 311 311 311 312 314 316 314 312 313 315 316 319 320 319 317 316 316 314 312 311 310 311 312 313 319 327 330 330 331 329 328 329 330 330 330 330 331 331 332 331 330 330 327 324 324 324 323 323 322 321 320 318 315 313 311 309 309 309
335 336 336 333 328 323 320 318 317 317 315 315 314 314 314 314 315 315 315 316 316 317 316 316 314 313 313 312 312 313 315 320 323 321 317 315 314 314 316 319 321 320 318 317 317 316 314 313 313 314 314 318 326 328 328 330 329 329 331 332 332 331 331 331 331 332 331 331 330 328 324 325 324 324 323 323 322 321 320 319 316 314 311 310 310
337 338 335 331 326 322 321 320 320 320 320 319 318 318 319 319 320 321 321 323 323 323 323 322 321 320 320 321 321 321 323 326 327 328 328 326 323 320 318 317 318 319 320 319 319 318 317 317 316 316 316 319 324 325 327 330 330 331 332 332 332 332 332 332 331 331 331 331 330 328 325 325 325 324 323 323 323 322 322 321 319 317 315 314 314
340 339 335 331 327 322 322 323 324 326 325 324 324 324 325 326 327 327 327 329 329 330 329 328 328 328 328 329 330 329 330 329 328 329 331 333 332 331 328 326 321 317 317 319 320 320 319 318 319 319 318 320 322 324 329 332 332 333 333 332 331 332 332 332 332 331 331 331 331 329 326 325 325 323 323 323 323 323 322 322 321 319 318 318 317
341 340 337 335 329 324 327 330 330 331 330 329 329 329 330 330 331 331 331 332 332 333 333 332 332 331 331 331 332 333 333 333 331 331 331 332 333 334 333 333 331 323 316 316 318 320 321 320 319 319 319 320 321 324 331 333 333 334 333 333 332 332 332 331 331 330 331 331 331 329 327 326 325 323 323 323 323 323 322 322 322 322 322 321 319
342 341 340 338 333 330 334 335 333 333 334 333 332 332 332 332 333 333 333 334 334 334 334 334 334 334 334 333 333 334 334 334 334 334 333 332 332 333 334 334 335 331 322 314 315 319 321 322 321 320 319 320 320 325 331 334 334 334 334 333 332 332 332 331 331 330 331 330 330 330 327 327 326 324 324 323 322 323 322 323 324 324 325 323 321
342 342 341 340 338 336 338 337 335 335 335 335 334 334 334 334 335 335 335 335 335 335 335 334 335 335 335 334 334 334 334 335 335 334 332 331 332 333 334 334 334 334 330 321 314 316 319 322 323 323 322 321 320 327 334 335 334 334 333 333 332 332 332 331 331 330 330 330 330 330 328 327 326 325 325 323 323 323 322 323 325 325 325 324 321
343 342 341 341 341 339 339 338 336 336 336 336 336 336 336 336 336 335 336 336 335 335 335 335 335 335 335 334 333 333 333 333 333 332 330 330 332 333 333 333 333 335 335 331 322 316 316 320 322 323 324 324 323 328 334 334 334 334 333 332 332 332 332 331 331 330 330 330 331 331 329 328 328 327 326 325 325 325 324 324 324 325 324 323 321
343 342 342 342 341 340 339 339 337 337 336 336 336 336 336 336 336 336 336 335 335 335 335 335 334 334 334 334 333 333 332 332 331 331 330 329 330 332 333 333 333 334 335 335 331 322 315 316 319 321 323 324 324 327 333 334 334 334 333 333 331 332 332 331 331 331 331 331 332 331 329 329 329 328 327 327 327 326 325 323 323 324 323 322 321
343 342 342 342 341 340 339 339 338 337 337 336 337 337 336 336 336 336 336 335 335 335 335 334 334 334 334 333 332 332 332 331 331 330 330 330 330 332 332 333 333 334 335 335 335 330 323 319 319 319 320 321 322 324 328 331 332 334 334 332 332 331 331 331 331 331 331 331 331 331 330 329 329 329 329 329 328 327 326 323 323 322 321 320 318
342 342 342 342 341 341 340 339 338 337 337 337 337 337 337 337 336 336 335 334 334 333 333 333 332 333 333 333 332 332 332 331 331 331 331 332 332 331 332 332 333 334 335 335 336 335 332 329 326 322 319 319 319 320 322 325 328 332 334 333 333 332 330 330 331 331 331 331 332 332 330 329 329 329 329 329 329 328 326 324 322 320 317 316 315
342 342 341 341 341 341 340 339 338 337 337 337 337 336 336 336 336 335 334 333 333 333 333 332 331 331 331 331 331 332 331 331 332 332 332 331 331 331 331 332 333 333 334 335 335 335 334 333 332 329 326 323 320 318 318 321 324 328 333 334 333 332 330 330 330 331 331 331 332 332 331 328 328 330 329 329 329 328 327 325 322 319 315 311 312
341 341 340 340 340 340 339 339 338 337 337 337 336 336 336 335 334 334 333 333 333 333 333 332 331 331 331 331 331 331 331 331 331 331 331 331 331 331 331 331 332 333 334 334 334 335 334 334 333 333 332 331 327 321 319 321 323 327 331 333 332 331 331 330 330 330 330 331 332 332 331 329 328 330 329 329 329 328 328 326 323 318 313 310 309
340 340 339 339 339 339 338 338 338 337 337 337 336 335 334 333 333 333 333 332 332 332 332 332 332 332 332 332 332 332 332 332 332 332 332 332 331 331 331 331 331 332 333 333 334 334 334 333 333 333 333 334 332 329 327 326 325 327 329 331 331 331 331 330 330 331 331 331 331 331 331 329 329 330 330 329 329 329 328 327 323 317 311 309 308
339 338 338 338 338 338 338 338 338 337 337 336 335 334 333 333 333 332 332 332 333 332 332 333 333 333 333 334 334 333 334 333 333 334 333 333 333 333 332 332 332 332 332 332 332 332 333 333 332 332 333 333 333 333 332 332 330 329 329 329 331 332 331 331 330 331 331 331 331 331 331 330 329 329 330 330 329 329 328 328 323 315 310 307 308
338 337 338 338 338 337 337 338 337 337 336 335 334 333 333 332 332 332 333 334 334 334 334 334 335 335 335 335 335 334 334 334 334 334 333 333 333 332 332 332 332 332 332 332 331 331 332 333 332 332 332 332 332 332 332 333 333 331 330 330 331 332 332 331 331 331 331 331 330 331 332 331 330 329 330 330 330 329 327 328 324 315 310 308 310
338 338 338 337 337 337 336 337 336 335 335 334 334 333 333 332 332 333 334 335 335 335 335 335 335 335 335 335 334 334 333 333 333 333 333 332 332 332 331 331 331 331 331 332 331 331 331 332 332 332 331 332 331 331 332 333 333 331 331 331 332 332 332 332 331 331 331 331 331 331 332 332 330 329 330 330 330 330 328 328 325 315 311 311 312
338 338 337 337 337 336 336 336 335 335 335 334 334 333 334 333 334 335 335 336 336 336 335 335 335 334 334 334 333 333 333 334 334 333 333 332 331 330 329 329 329 330 331 331 332 331 331 331 332 331 331 331 331 331 332 333 333 332 332 332 332 332 332 332 331 331 331 331 331 331 332 332 331 330 330 330 330 330 329 328 326 318 313 314 315
338 338 337 337 336 336 336 336 335 335 335 335 335 335 335 335 335 335 336 336 336 336 335 334 334 334 334 334 334 334 334 334 334 333 333 332 332 331 330 329 329 329 331 332 332 332 331 331 331 331 331 330 330 330 331 332 333 333 332 332 331 331 331 331 331 331 330 331 331 331 331 331 331 331 330 331 330 330 329 327 327 321 315 317 319
338 338 338 337 337 337 337 336 336 336 336 336 336 337 337 337 336 335 335 336 335 334 334 334 334 334 334 334 334 334 334 334 334 333 333 332 332 332 331 330 330 329 330 331 331 332 331 331 331 331 331 330 330 330 331 332 333 333 333 332 331 331 331 331 330 330 331 331 331 331 331 331 331 331 331 331 330 330 329 327 328 323 317 318 320
338 338 338 338 338 337 337 337 337 337 337 337 337 336 336 336 335 334 334 335 335 334 333 334 334 334 334 334 335 334 334 334 333 333 333 333 332 331 331 330 330 330 330 331 331 332 332 331 331 331 331 331 330 331 331 331 332 332 333 332 331 330 330 330 330 331 331 331 331 331 331 331 331 331 331 331 330 330 329 328 328 325 320 318 320
338 338 338 338 338 337 337 337 337 337 336 336 336 336 335 334 334 334 335 335 335 334 334 334 334 334 334 334 334 334 334 334 333 333 332 332 332 331 331 330 330 330 330 331 331 332 332 332 332 331 331 331 331 331 331 331 332 332 332 332 332 331 330 330 330 330 331 331 331 331 331 330 331 331 331 331 330 330 329 328 328 327 323 319 319
338 338 338 337 337 336 336 336 336 336 336 336 335 335 335 334 333 333 334 334 334 334 333 333 333 333 333 333 334 334 334 334 333 333 332 332 332 332 331 330 329 328 329 329 330 331 331 331 332 332 332 331 331 331 331 331 331 331 332 332 332 332 331 330 330 330 330 331 331 331 331 330 331 331 331 331 330 330 330 329 329 328 325 322 320
336 336 336 336 336 336 335 335 335 335 335 335 335 334 334 333 333 333 333 333 333 333 333 333 333 333 333 333 334 334 333 333 333 332 331 331 331 331 331 330 328 327 326 327 328 330 331 331 331 331 331 331 331 331 331 331 331 331 331 332 332 332 331 330 330 330 330 330 330 331 331 331 331 331 331 331 330 330 330 329 329 328 327 325 323
335 335 335 335 335 334 334 334 334 334 333 334 333 333 333 332 332 333 333 333 333 333 332 332 332 332 332 332 333 333 333 333 332 331 331 330 330 330 330 330 329 328 327 326 327 328 330 330 330 330 331 331 330 330 330 330 330 330 331 331 332 332 332 332 331 330 330 329 329 329 330 330 331 331 330 331 330 330 330 330 329 328 328 327 326
333 333 333 334 334 334 333 332 333 333 332 332 332 332 332 332 331 332 332 332 332 333 332 332 331 331 330 330 332 333 331 331 330 330 329 329 329 329 329 330 330 329 328 327 327 327 329 329 330 330 330 331 331 330 329 329 329 329 329 329 330 330 331 332 331 331 331 330 329 329 329 329 330 329 329 330 330 330 330 330 330 329 328 328 327
332 332 332 333 333 333 332 332 333 333 333 332 331 331 331 331 331 331 331 331 331 332 331 330 330 330 329 330 331 331 327 326 327 327 327 328 328 328 328 328 329 330 329 328 327 327 327 328 329 329 329 329 330 330 329 329 329 329 329 329 329 329 330 330 331 331 331 331 330 330 329 329 329 328 328 329 329 329 330 330 330 329 329 328 328
Wind_Speed
28 26 25 23 22 21 20 19 17 16 16 14 14 14 15 14 13 12 12 11 11 12 13 15 17 18 18 18 18 18 17 16 15 14 14 14 15 16 16 15 15 14 14 14 13 13 13 14 15 15 15 15 15 15 15 15 14 14 14 13 12 11 11 11 11 11 10 10 9 9 8 6 6 5 5 5 3 3 5 6 7 8 9 10 10
29 27 25 24 22 21 20 19 18 17 16 14 14 14 15 14 13 12 12 12 12 13 14 16 18 18 18 18 17 17 16 15 14 14 15 16 17 16 16 15 14 14 13 13 12 12 13 14 15 15 15 15 15 15 15 15 14 14 14 14 13 13 12 11 10 10 9 8 7 7 6 6 6 6 6 6 6 5 5 6 6 6 9 10 10
29 28 26 24 22 21 20 19 18 17 16 14 14 14 14 14 13 12 12 12 12 13 15 16 18 18 18 17 16 15 15 15 15 16 17 17 17 16 15 14 13 13 13 12 11 12 13 13 14 15 15 14 14 15 15 14 13 13 14 13 13 12 12 12 11 10 9 8 6 5 5 4 5 7 7 8 9 8 7 7 6 5 9 10 10
27 27 27 25 22 21 20 19 18 17 16 14 13 13 14 14 13 12 13 13 12 14 15 16 17 18 17 16 16 16 16 16 17 17 18 18 17 15 15 14 13 12 12 12 11 11 12 12 13 13 13 13 13 13 13 12 11 11 12 11 11 11 11 11 10 9 9 8 7 5 4 3 4 6 8 11 11 10 9 8 8 8 10 9 9
26 27 27 25 23 21 20 19 18 17 16 14 13 13 13 13 13 12 13 13 13 14 15 16 17 17 16 16 16 16 17 17 17 18 18 18 17 15 14 13 12 11 11 11 10 10 10 11 12 11 11 10 10 11 12 11 10 10 10 9 9 9 9 9 8 9 11 11 10 7 6 5 5 7 9 12 12 11 12 11 10 9 10 9 10
26 26 27 26 24 21 20 19 18 17 16 15 13 13 12 12 13 12 13 13 13 14 15 16 16 16 16 16 16 16 17 17 17 17 16 16 16 15 13 12 11 10 10 9 9 9 9 10 10 9 8 8 10 12 12 12 10 10 9 7 7 7 7 6 7 10 13 14 12 9 7 7 8 10 11 11 12 12 13 12 11 10 10 10 10
25 26 26 26 24 22 21 19 18 17 16 15 13 12 11 11 12 12 12 13 13 13 15 15 15 15 16 16 16 16 17 17 16 15 15 14 14 13 12 11 10 9 8 8 7 7 7 8 9 7 7 9 13 14 13 11 10 9 7 6 6 8 8 6 7 11 12 14 13 10 9 10 11 12 11 11 12 13 12 12 11 11 11 11 10
25 26 26 26 25 23 21 19 18 17 17 15 13 12 11 11 11 12 12 13 13 13 14 15 15 15 15 15 16 16 16 16 15 14 14 13 12 11 10 10 9 9 8 7 7 6 7 8 8 8 7 12 16 15 12 10 8 6 5 6 8 9 9 7 8 10 11 12 12 10 11 12 12 12 11 13 14 14 13 12 13 13 12 12 11
26 26 26 26 25 23 21 20 19 18 17 15 14 12 11 11 11 12 12 12 12 13 13 14 14 14 14 15 15 15 16 15 15 13 12 11 10 9 8 9 9 9 9 9 9 8 8 8 8 8 9 15 18 15 12 10 7 5 6 7 9 10 9 8 9 9 10 11 10 9 11 13 12 12 13 15 15 14 14 13 14 15 14 12 11
26 26 26 25 25 24 22 21 20 18 17 16 14 13 12 11 11 12 12 12 12 12 13 14 14 14 14 14 14 15 15 15 14 12 11 10 9 8 8 9 10 11 12 11 11 9 8 8 9 10 13 17 17 14 11 9 6 6 7 9 9 10 10 11 10 10 10 10 9 10 11 12 12 14 15 15 15 15 15 14 14 15 14 13 13
25 26 25 25 24 23 22 21 20 19 18 16 15 13 12 11 12 12 12 12 12 12 13 13 14 13 13 14 14 14 14 14 13 12 10 9 8 8 8 10 11 12 13 12 11 10 9 9 10 13 16 18 16 13 10 8 6 6 8 8 9 11 11 12 11 10 10 10 9 9 10 12 12 15 15 15 15 15 14 14 14 14 13 13 13
25 26 25 24 24 23 22 21 20 19 18 16 15 14 12 11 11 12 12 12 12 12 13 13 14 14 13 13 14 14 13 13 12 11 9 9 9 9 10 10 11 12 12 12 11 11 10 10 12 16 18 17 15 12 9 6 5 6 8 9 10 11 11 11 11 11 10 9 9 8 9 12 13 15 14 14 14 14 13 13 13 14 13 13 13
26 25 25 24 23 22 21 20 20 19 17 16 15 13 12 11 11 12 13 12 12 12 12 12 13 14 14 13 13 13 12 12 11 10 9 9 9 10 10 11 11 12 12 12 12 11 11 12 15 18 18 17 15 11 8 5 5 7 8 9 10 10 11 11 11 11 9 8 8 7 10 13 14 13 13 12 11 12 12 12 12 12 13 13 13
26 25 24 23 22 21 20 19 18 18 17 16 14 13 12 11 11 13 13 13 12 12 12 12 12 13 14 13 12 13 12 11 10 9 9 9 10 10 11 11 11 12 12 12 12 12 12 14 17 18 18 17 14 10 8 6 5 7 8 9 9 10 11 12 12 11 9 8 7 8 11 12 12 12 11 10 10 10 10 10 11 10 11 12 13
24 23 23 22 21 20 18 17 17 17 16 15 14 13 12 12 12 13 14 13 12 12 11 11 12 12 12 12 13 12 11 11 10 9 9 9 10 11 11 11 11 12 11 12 12 12 13 16 19 19 18 16 13 10 8 6 5 6 7 8 8 10 12 13 13 11 10 8 7 7 10 10 9 10 9 9 8 8 8 8 9 8 9 10 11
22 22 22 21 20 19 18 17 16 16 15 15 14 14 14 13 13 13 14 14 13 12 12 11 11 11 10 11 12 12 12 11 10 9 9 9 10 10 11 11 11 11 11 12 12 12 14 17 19 18 17 15 13 11 9 6 4 5 6 7 9 10 12 12 12 12 11 10 9 7 8 8 8 8 7 6 5 7 7 6 7 7 7 8 9
21 22 21 20 19 19 18 17 16 16 16 15 15 15 15 14 14 14 14 14 13 12 12 11 11 11 10 10 11 11 11 10 9 9 9 9 10 10 11 11 11 12 11 11 11 12 15 17 18 18 17 15 13 11 8 6 4 4 5 7 8 9 10 11 11 11 11 11 11 9 8 7 6 6 5 4 4 5 5 4 5 5 5 5 6
20 21 20 19 19 18 18 17 17 17 17 17 17 16 15 15 14 14 14 13 13 13 12 11 11 10 10 10 11 10 10 9 9 9 8 8 9 10 10 10 11 12 11 11 11 12 15 17 17 18 17 15 13 11 8 5 3 4 4 5 6 8 9 10 10 10 10 11 11 10 9 9 7 6 4 4 4 3 3 3 2 2 3 3 4
18 21 19 18 18 17 17 17 17 17 17 17 17 16 16 15 14 13 13 13 13 13 12 11 11 10 10 10 10 10 9 9 9 8 7 7 8 9 9 10 10 11 11 11 11 11 14 16 17 18 17 15 13 10 8 5 3 2 3 4 5 6 8 8 9 9 10 10 10 9 9 9 9 8 7 6 6 5 4 3 2 2 2 2 2
18 21 18 17 17 16 16 16 16 16 16 16 16 16 16 15 13 12 12 13 13 13 12 11 11 10 9 9 9 9 8 8 8 8 7 7 8 9 9 9 10 10 11 11 11 11 13 15 17 17 17 16 13 10 8 5 3 2 2 3 4 5 6 7 8 9 10 10 10 9 9 9 10 9 9 8 8 7 6 4 4 3 1 1 1
18 20 17 16 15 14 15 15 15 15 15 15 14 15 15 15 13 13 13 14 14 13 12 12 11 10 9 8 8 8 8 8 8 8 8 8 8 8 9 9 9 10 11 11 11 11 12 14 16 17 17 16 13 11 9 7 5 2 0 2 3 4 5 5 7 9 9 11 12 11 9 8 9 9 9 9 9 8 6 5 5 4 3 2 2
20 21 17 15 14 13 14 14 14 14 14 13 13 14 14 15 14 14 13 13 13 12 12 12 10 9 8 8 9 9 9 9 9 9 8 9 9 8 8 8 9 9 10 11 11 11 11 13 15 17 18 16 15 12 9 8 6 4 2 1 2 4 5 5 7 9 9 10 13 13 10 8 8 9 9 10 10 8 7 7 6 5 3 2 2
21 21 17 15 12 12 13 12 13 12 12 12 13 13 13 14 13 13 12 12 12 11 12 11 10 9 9 9 9 9 8 9 10 10 10 10 10 9 8 9 9 9 10 10 11 12 12 13 14 16 18 17 16 14 11 9 7 4 3 2 3 4 5 5 7 9 9 10 12 13 11 8 8 9 9 10 10 9 8 7 6 5 4 2 2
22 19 17 15 12 12 12 12 12 11 12 12 13 12 13 12 12 12 10 11 10 10 11 10 10 10 9 9 9 8 8 8 8 9 9 10 10 10 9 9 9 9 10 10 10 12 12 13 14 15 17 17 18 16 13 10 8 6 5 4 3 4 5 6 7 8 9 11 12 13 12 10 9 9 9 9 9 9 7 6 5 5 4 2 2
21 18 16 15 13 14 13 13 12 11 12 11 11 11 11 11 10 11 10 10 9 9 9 9 9 9 9 8 8 8 8 6 5 6 7 9 9 9 10 9 9 9 10 10 10 11 12 13 13 14 16 17 19 17 14 11 9 7 6 5 4 5 6 7 8 9 9 11 12 13 12 10 9 9 9 8 8 8 7 5 4 4 3 3 2
20 17 16 15 15 15 13 12 12 11 11 10 11 10 10 9 9 9 9 9 8 8 7 7 7 7 7 7 8 8 7 6 4 4 4 6 7 8 9 9 10 10 10 10 10 11 12 13 14 14 15 17 18 16 13 11 10 8 7 6 6 6 7 7 9 10 10 10 12 13 13 11 10 9 9 8 8 8 7 5 4 4 4 5 4
19 16 16 16 16 15 13 12 12 12 11 11 11 10 9 8 8 8 7 7 7 7 6 6 6 6 6 6 7 8 7 7 6 5 4 4 5 6 8 9 10 10 11 11 11 12 12 13 14 14 15 18 18 15 12 10 10 9 8 8 8 8 7 8 10 11 11 11 12 13 13 11 10 9 9 8 8 8 7 6 5 5 6 6 4
17 16 17 16 16 15 14 13 12 12 11 11 10 9 8 7 7 6 6 6 5 5 5 5 5 5 6 7 8 8 8 8 9 8 7 6 6 7 7 8 9 10 12 13 13 13 13 14 14 15 16 18 18 15 11 10 10 10 9 9 10 10 9 9 11 12 12 12 12 13 13 11 9 8 9 8 8 7 6 6 5 5 5 5 4
15 16 18 17 16 15 14 12 12 11 10 10 10 9 7 6 5 4 4 4 3 3 4 4 5 5 7 7 7 8 8 9 10 11 10 9 9 9 9 9 9 10 12 14 14 15 15 15 15 15 16 18 18 15 13 11 11 11 11 12 13 12 11 10 11 12 13 12 13 14 14 12 9 8 8 8 8 7 6 5 4 5 4 4 4
13 14 17 17 16 16 14 12 12 11 10 9 9 8 7 6 5 4 4 3 3 3 4 5 6 7 8 9 9 9 9 10 11 11 12 11 11 11 11 10 10 10 11 14 16 16 17 17 16 16 16 18 18 16 15 14 14 14 14 15 15 13 11 11 10 11 13 14 14 15 14 12 9 7 6 7 8 7 6 4 3 3 3 3 4
12 12 15 15 15 15 13 11 12 10 9 9 8 8 7 6 5 4 4 4 5 5 5 6 8 8 9 10 11 10 10 11 11 12 12 12 13 13 13 12 12 11 11 12 16 18 18 18 18 18 18 19 18 17 17 17 17 17 16 15 15 14 13 12 11 12 14 15 15 14 13 11 9 6 5 6 6 6 5 3 3 3 4 4 4
11 10 12 13 13 14 12 11 11 10 9 9 8 7 6 6 5 5 5 5 6 6 6 7 8 9 10 11 11 11 11 11 12 12 12 13 13 13 13 13 12 12 12 12 14 18 19 19 20 20 21 21 20 20 19 19 18 18 17 16 15 16 15 13 12 12 14 16 15 14 13 11 9 6 5 5 5 6 5 3 3 4 4 4 6
11 10 11 12 12 12 11 11 11 11 9 8 9 7 6 6 5 5 6 6 7 7 7 8 9 10 11 10 10 10 10 11 12 12 13 13 13 14 14 14 13 13 14 14 14 16 19 20 21 21 22 22 22 22 21 20 19 19 18 17 17 17 16 15 14 14 15 17 16 14 13 11 10 7 6 5 5 6 5 4 3 4 4 5 6
12 12 12 12 13 13 12 11 11 11 9 9 9 8 7 6 5 6 7 7 7 8 8 8 9 10 10 9 9 9 9 10 10 10 11 12 13 13 14 14 15 15 16 17 17 16 18 20 21 22 22 23 23 24 24 23 22 20 19 20 19 18 18 16 16 17 17 18 17 15 13 12 10 8 6 6 6 6 5 4 4 5 5 5 5
12 12 12 12 13 13 12 12 12 11 10 9 8 8 7 7 6 6 7 7 7 7 8 8 8 8 9 8 8 8 9 9 9 9 10 11 12 13 13 14 15 16 16 18 18 17 18 20 21 22 22 23 24 25 25 25 24 22 22 22 21 20 20 18 19 20 18 17 17 16 14 12 10 8 7 7 7 7 5 4 6 7 7 7 6
11 12 11 11 12 12 12 12 12 11 11 10 8 8 7 7 6 6 6 6 6 7 7 7 7 7 8 8 9 10 10 10 10 11 11 12 12 12 13 13 15 16 17 18 19 19 19 20 21 22 22 22 24 25 25 25 25 24 24 24 23 23 23 20 20 22 20 18 16 16 15 13 11 9 8 8 8 8 7 5 6 8 8 7 6
11 11 11 11 11 12 12 12 12 11 11 10 9 8 7 7 7 7 7 7 6 7 7 7 7 7 8 9 10 11 11 12 13 13 14 14 14 14 13 14 15 16 17 19 19 20 20 21 23 23 22 23 24 24 24 24 24 25 24 24 24 25 25 23 22 23 22 19 17 15 15 13 11 10 9 8 8 8 8 7 7 8 8 7 7
11 11 10 11 12 12 13 13 12 12 11 10 10 9 8 8 8 7 6 6 5 6 7 7 7 7 8 9 11 11 12 13 13 14 15 15 15 15 15 15 16 17 19 20 21 21 22 23 24 23 23 25 26 25 25 24 25 26 25 24 24 24 25 24 21 22 23 20 19 17 13 12 12 11 10 9 9 9 8 7 8 9 9 7 8
12 12 12 12 12 12 13 14 13 12 11 11 10 9 8 8 7 6 5 4 5 6 6 6 7 8 8 9 10 11 11 12 13 14 15 15 16 16 16 16 17 19 20 20 21 21 22 23 24 23 23 24 26 25 25 24 24 26 26 26 25 24 23 22 20 22 22 19 19 17 13 13 13 12 11 10 9 10 9 8 8 10 10 8 8
12 13 13 12 12 12 14 14 12 12 11 10 10 9 8 7 6 5 4 5 5 6 6 7 7 8 8 8 9 10 11 11 12 13 14 15 16 16 17 17 18 20 21 21 20 21 22 24 24 24 24 23 24 24 24 25 24 25 27 27 26 23 22 22 21 22 21 19 19 18 15 14 14 13 12 11 10 11 10 9 8 9 10 9 9
12 11 12 12 12 12 12 11 11 10 10 9 9 8 7 7 7 6 5 5 5 6 7 7 7 8 8 9 9 9 9 9 10 12 13 14 15 16 17 18 19 20 22 22 21 21 22 23 25 25 25 25 24 23 23 25 25 24 25 25 25 24 23 23 23 23 22 21 20 19 17 16 16 14 12 12 12 12 11 10 9 10 10 10 10
12 11 10 10 10 10 10 9 8 8 8 8 8 7 7 7 7 6 5 5 6 7 8 8 8 8 8 8 8 7 8 8 10 11 12 14 15 16 17 18 18 20 22 22 22 22 22 23 24 25 25 25 25 25 23 24 25 25 24 23 22 24 25 26 26 26 25 23 21 20 20 19 18 16 14 14 13 13 13 11 11 11 11 12 11
13 11 10 9 9 9 8 7 7 7 7 7 7 6 6 5 6 6 6 7 7 8 8 7 7 6 7 7 7 8 8 9 10 11 12 14 15 16 17 18 17 18 20 21 21 23 23 23 24 24 25 25 26 26 25 24 24 24 23 22 21 22 24 26 28 27 26 24 22 21 22 22 19 17 16 15 15 14 14 13 12 13 13 13 13
13 12 11 10 9 8 7 7 7 7 7 7 6 6 6 5 6 7 7 7 7 7 6 5 7 8 8 9 9 9 10 11 11 12 13 14 15 16 17 18 18 17 19 20 21 21 22 23 24 25 26 26 26 26 25 25 25 24 22 21 20 19 20 24 27 26 26 25 24 24 24 24 21 20 19 18 16 15 15 14 14 14 15 15 14
13 12 12 11 10 9 8 8 8 7 7 7 7 7 7 7 7 8 7 7 7 8 7 7 9 10 10 10 11 11 12 12 13 13 14 14 16 16 17 18 18 17 18 19 20 20 21 22 24 25 26 27 27 27 26 26 27 27 26 23 19 17 20 22 21 22 25 26 26 26 26 25 23 22 21 19 18 17 17 16 15 16 17 16 16
15 13 12 11 10 10 9 8 7 7 7 7 7 8 7 7 8 8 8 8 9 9 9 9 10 10 11 11 12 12 13 13 14 14 15 16 17 17 17 18 18 18 18 19 19 20 22 23 25 26 27 27 27 28 27 27 28 28 28 27 24 22 22 21 19 19 21 25 27 27 27 26 25 24 23 21 20 19 19 17 16 17 18 18 18
15 13 12 10 10 9 8 7 7 7 7 7 7 8 8 8 8 8 9 9 9 9 9 9 10 11 12 13 13 13 14 15 15 16 16 16 16 16 17 17 17 17 18 19 20 21 22 22 23 25 26 26 27 28 28 27 27 27 26 26 26 27 24 20 19 18 18 21 26 28 28 28 26 26 25 24 22 21 20 19 18 18 19 20 20
12 11 10 9 9 9 9 9 9 9 9 9 9 9 9 9 8 9 9 9 9 9 10 10 11 12 13 14 15 15 16 17 17 17 17 17 16 16 17 17 17 17 18 19 19 20 20 21 21 22 23 24 24 27 28 28 26 23 22 23 24 26 26 25 24 22 20 20 22 26 28 27 27 28 27 26 24 23 22 21 20 20 20 21 22
12 11 10 10 9 9 10 9 9 9 9 10 10 9 9 10 10 10 9 10 10 10 11 11 12 13 14 15 17 18 19 19 19 19 18 18 18 18 18 17 17 17 17 18 18 17 18 18 19 19 20 21 23 25 26 26 23 18 19 21 22 23 25 27 27 26 25 23 22 25 27 28 29 29 29 29 27 25 24 23 22 21 21 21 22
12 11 10 9 9 9 9 8 7 8 9 10 10 9 10 10 11 12 12 12 13 13 14 15 17 17 17 17 17 19 20 21 20 19 19 19 18 17 17 17 17 17 17 17 17 16 15 16 16 16 18 20 23 23 21 19 18 18 19 20 22 23 24 26 28 28 27 26 24 25 26 28 30 29 29 30 29 27 26 25 24 23 23 22 22
12 10 10 9 7 6 6 7 7 8 8 10 11 11 11 12 13 13 14 14 15 17 19 19 19 19 19 19 18 18 19 20 19 18 19 19 18 17 16 16 16 16 16 16 16 15 14 14 15 15 16 18 19 19 17 15 16 18 20 21 23 25 26 27 28 28 28 29 28 27 28 27 27 26 26 27 28 28 28 27 26 25 25 23 23
Wind_Direction
162 160 160 159 160 160 155 151 144 137 129 124 123 122 121 118 115 111 108 105 108 111 115 121 124 123 122 121 120 120 119 119 118 116 114 112 109 107 105 104 103 103 104 104 104 105 107 107 104 102 99 100 98 94 94 93 94 95 95 96 97 95 89 86 85 83 81 78 75 73 70 60 46 24 20 27 47 87 99 105 104 105 108 105 106
160 160 161 161 162 161 157 153 147 140 130 125 122 124 124 121 118 113 111 108 112 114 118 125 127 126 125 124 122 122 121 121 119 117 115 112 109 106 105 104 104 104 105 105 107 108 108 107 104 102 101 102 99 97 98 98 100 100 98 97 98 97 90 85 86 88 84 78 70 64 60 52 38 14 20 59 75 90 114 124 115 111 114 115 121
162 160 162 163 164 163 160 156 149 141 131 126 123 126 126 124 121 116 113 111 114 117 121 127 129 129 128 126 124 123 122 121 119 117 115 112 109 107 107 105 105 105 107 107 108 108 107 105 102 103 105 104 100 101 102 100 104 105 104 101 96 92 86 81 80 81 81 79 72 63 59 43 41 34 42 74 81 84 102 129 136 120 115 122 131
168 163 164 163 164 165 163 158 151 142 133 130 127 128 128 126 123 119 116 115 118 121 124 128 131 131 131 129 126 124 122 121 119 117 115 112 111 109 109 107 107 107 107 107 106 106 106 105 105 109 111 110 105 105 108 106 108 108 107 99 85 80 79 77 70 63 66 65 56 47 56 55 76 69 62 77 82 85 94 111 126 118 114 124 133
173 167 167 163 163 166 164 161 152 143 137 134 132 130 129 128 125 122 119 118 121 125 127 129 133 134 133 131 128 127 124 123 121 119 117 115 114 111 110 111 111 111 109 110 109 109 109 108 112 119 122 119 112 114 115 113 112 110 108 95 78 76 77 69 57 51 53 49 42 42 61 75 94 90 76 79 81 86 92 97 106 109 113 121 126
176 171 169 164 163 166 166 162 153 146 142 140 136 133 131 130 128 125 124 122 124 128 130 131 135 137 136 134 132 130 128 127 125 122 120 118 117 116 117 118 118 119 120 119 117 115 116 116 122 134 138 130 121 122 117 110 106 102 100 95 84 82 77 56 40 42 43 39 40 51 76 89 92 88 79 77 82 89 93 95 100 106 109 112 115
179 175 171 166 164 165 166 162 155 149 148 145 139 136 132 132 132 129 127 127 129 130 132 134 136 140 140 137 135 133 132 130 128 126 123 122 121 123 125 126 127 130 133 129 125 123 126 126 131 147 148 133 128 124 114 108 104 98 98 98 91 83 75 54 38 37 38 37 42 62 90 96 86 82 74 74 84 90 94 98 103 108 109 108 110
179 177 172 167 165 164 165 161 157 154 153 150 143 139 135 136 136 133 130 132 135 135 135 136 138 141 142 140 138 134 134 132 131 129 127 127 125 126 128 132 135 137 136 127 124 126 130 131 134 149 145 131 130 123 112 109 105 104 103 94 85 81 76 61 46 38 36 37 43 65 87 89 82 79 75 75 83 87 88 92 97 102 106 108 111
179 178 172 167 165 163 163 162 159 158 157 152 149 144 140 140 141 139 133 133 138 142 141 140 141 142 143 140 139 137 135 134 133 134 132 130 125 122 123 128 132 130 124 118 117 122 128 128 132 144 139 131 129 122 115 113 114 117 104 91 82 76 69 57 49 41 36 35 44 65 81 85 83 84 80 77 81 87 87 86 92 94 96 99 102
180 176 171 168 164 163 163 162 161 161 160 157 155 150 146 144 145 145 140 137 139 148 149 145 144 143 143 142 140 139 137 138 137 137 135 130 124 118 118 121 122 119 115 114 118 123 124 120 127 138 136 132 128 123 121 122 130 125 103 90 78 68 58 48 44 41 37 38 52 71 82 84 81 83 84 82 84 88 88 87 89 90 90 88 88
179 173 169 167 164 164 163 163 162 162 162 160 159 156 151 148 148 150 148 145 142 150 155 151 148 144 144 143 142 141 140 141 140 140 139 132 126 121 120 120 118 116 115 117 122 123 119 117 126 135 135 132 128 127 128 132 133 108 89 78 69 61 51 44 40 41 42 49 64 75 83 85 82 84 88 89 89 91 91 89 88 89 89 86 86
175 170 167 167 165 164 164 163 163 163 163 162 162 161 155 151 152 155 154 153 151 151 157 156 151 147 146 145 143 143 142 142 144 145 142 135 128 125 124 122 120 117 118 121 124 123 117 119 130 135 135 131 128 131 132 133 117 87 75 67 62 57 50 43 41 44 47 57 68 75 86 87 83 84 87 87 88 91 92 91 90 90 91 90 89
170 167 167 167 166 165 165 164 163 163 162 162 163 162 159 155 155 159 161 162 161 153 153 157 156 152 151 149 145 145 147 145 147 147 144 136 132 130 127 126 123 121 121 122 124 124 121 125 134 137 135 132 132 134 138 137 107 84 72 64 57 54 49 43 42 46 48 54 65 76 84 84 81 81 84 85 86 89 91 93 92 90 89 90 88
168 166 167 167 166 164 164 163 162 162 162 163 163 163 162 160 162 165 169 170 166 157 151 156 161 159 157 155 149 149 152 149 149 149 147 142 137 135 133 131 128 126 125 125 126 127 127 131 137 138 135 135 138 142 151 153 115 87 74 65 55 51 47 42 41 44 47 51 63 75 75 77 82 85 86 87 88 84 84 88 89 88 85 84 83
166 164 165 166 165 162 162 162 161 161 162 162 163 165 166 167 170 172 174 173 168 163 156 156 164 165 163 159 154 155 156 155 153 153 152 148 143 141 139 137 132 130 129 128 129 129 134 138 140 139 138 142 146 153 164 166 134 96 79 69 59 54 51 45 41 40 43 43 48 64 65 67 73 81 88 91 92 88 86 85 87 89 86 85 84
163 162 163 164 162 161 160 160 161 161 161 162 166 168 170 174 177 178 178 176 171 168 162 159 166 169 167 159 158 162 165 166 162 163 163 153 149 148 145 142 137 134 133 133 130 130 139 144 144 142 144 150 153 161 173 174 146 103 79 71 64 58 54 48 40 36 36 34 33 44 52 53 55 63 72 73 77 91 95 92 94 94 88 89 88
163 162 162 162 161 162 161 160 161 161 162 165 170 171 175 179 179 181 180 179 174 170 168 169 173 172 169 162 166 172 173 174 172 175 171 159 155 153 152 149 145 141 139 138 134 133 143 150 149 149 152 154 158 166 176 176 143 100 76 70 65 57 55 49 38 33 31 30 28 27 27 27 36 43 49 42 35 62 82 87 94 94 88 87 88
163 164 160 162 161 162 163 164 165 164 167 169 172 174 177 181 181 184 182 180 175 173 174 178 183 177 171 166 170 177 179 179 179 182 172 162 161 160 160 156 153 149 147 145 140 137 146 156 155 156 157 157 162 170 180 181 139 101 80 68 59 54 52 47 39 34 29 26 23 18 13 8 7 8 10 7 359 8 46 72 74 74 81 79 82
156 163 159 161 162 164 168 168 169 167 170 171 173 174 177 181 183 185 181 179 177 177 178 184 192 187 178 172 172 177 183 186 187 190 178 170 170 169 169 166 164 158 155 153 150 145 150 159 161 162 161 161 166 172 186 189 156 117 85 58 45 47 42 40 39 33 24 18 13 8 5 359 352 349 348 344 338 338 357 17 6 18 54 46 55
152 162 159 162 163 167 171 170 170 169 174 175 175 176 177 180 183 185 179 179 180 180 181 188 196 195 190 181 177 181 187 193 196 198 189 185 184 181 179 175 175 170 165 163 161 156 155 162 166 168 165 165 168 176 190 194 183 156 88 48 34 31 23 30 36 28 22 17 8 357 351 349 344 341 342 340 334 333 338 346 339 331 337 329 344
154 162 160 162 164 168 170 171 171 172 178 178 177 178 179 178 182 184 180 181 181 182 186 192 198 199 200 193 186 189 193 198 204 207 200 196 196 193 188 186 187 183 178 174 172 168 165 167 171 173 171 170 169 176 196 203 195 194 126 32 14 1 1 14 24 23 22 18 10 358 344 338 339 337 336 333 330 328 326 327 325 316 309 298 308
156 160 161 162 162 167 170 171 172 175 179 179 180 182 182 180 182 184 181 183 181 182 189 195 201 203 205 203 197 197 198 202 208 211 210 207 207 205 195 195 198 195 191 186 182 179 175 174 177 179 176 174 171 176 198 210 207 210 227 308 334 332 340 352 7 12 14 13 9 4 352 337 333 334 331 327 324 322 319 315 315 314 309 300 302
156 158 161 162 163 168 171 173 173 176 179 182 185 186 186 182 181 181 181 183 179 182 190 196 201 205 209 210 207 205 202 203 211 214 214 213 212 212 203 203 205 205 203 196 192 187 184 181 182 184 182 181 177 178 194 210 219 226 238 259 295 311 325 335 350 357 2 6 5 4 359 346 334 333 328 324 320 317 316 309 308 310 300 294 303
156 158 161 161 165 171 174 174 174 177 180 184 186 187 186 183 179 175 176 178 177 181 189 196 200 207 210 212 214 213 209 204 211 220 225 223 219 218 211 209 210 212 213 206 200 195 190 186 186 187 187 187 183 181 191 207 224 236 245 252 268 292 314 325 332 338 345 353 356 356 356 350 337 332 328 325 319 313 313 306 305 311 302 297 295
157 160 163 165 169 175 178 176 175 177 178 181 182 183 183 178 172 167 169 170 171 179 186 194 199 206 206 210 216 218 223 214 207 216 231 235 232 233 224 217 215 217 222 218 209 202 197 191 189 189 189 190 186 183 190 204 223 238 249 254 262 285 313 318 318 323 330 339 345 347 348 345 336 331 329 327 321 310 307 302 301 303 298 291 277
162 165 166 168 171 175 178 176 174 173 171 176 177 177 174 165 162 161 164 163 162 170 179 189 197 202 199 207 218 223 233 233 221 209 220 241 244 251 247 235 224 220 224 227 220 210 204 197 192 190 189 187 183 181 186 198 214 230 249 262 269 284 303 307 310 313 317 326 334 339 341 339 335 333 331 329 323 310 304 302 296 294 291 289 278
163 167 167 168 171 173 173 174 173 171 171 175 176 173 169 160 159 161 161 158 155 164 176 188 196 202 204 215 224 227 236 246 250 235 223 237 248 259 265 260 245 231 225 228 228 219 210 204 197 193 189 185 183 182 183 188 200 212 232 253 262 272 283 291 302 305 305 313 323 331 334 335 333 331 330 328 320 309 303 300 291 287 286 286 283
159 161 167 168 169 170 170 175 175 175 176 177 179 176 171 163 165 170 166 160 156 167 181 193 207 214 217 224 228 230 238 248 257 259 253 249 257 260 265 270 263 250 236 230 229 226 218 210 204 199 193 190 189 188 189 190 198 210 227 244 253 260 269 280 292 297 297 303 314 325 329 329 329 325 325 325 320 311 307 306 296 287 283 282 282
160 159 167 170 169 170 171 178 177 176 178 180 182 179 175 169 174 185 175 168 170 191 203 208 225 229 232 236 237 241 244 249 256 263 266 267 271 269 269 270 267 258 247 241 234 231 226 218 212 208 204 200 198 201 205 202 207 223 234 239 243 248 261 273 284 290 292 297 310 321 323 322 321 319 323 324 319 313 310 307 295 285 278 278 276
165 162 168 171 171 173 172 176 177 175 177 181 182 178 181 180 188 207 196 208 234 233 223 223 240 243 242 242 243 248 251 253 257 262 268 274 277 272 271 272 273 266 255 251 242 235 231 227 223 219 216 211 212 217 215 210 216 228 237 239 240 243 255 265 272 281 287 295 305 314 316 314 312 314 321 319 315 315 312 294 267 256 252 252 261
172 170 171 174 176 178 175 175 176 174 177 179 179 177 185 192 205 220 217 235 249 248 238 236 246 252 252 247 247 250 251 253 256 263 270 275 276 272 270 271 276 275 267 259 250 243 236 232 230 228 225 223 226 227 219 215 220 229 237 241 242 241 248 255 262 274 285 292 298 306 311 306 302 307 311 308 311 320 312 275 234 228 234 234 252
179 179 175 178 180 183 179 175 176 178 181 178 178 179 186 197 209 223 226 236 248 251 251 251 252 255 255 251 253 255 256 256 257 262 269 274 275 274 274 277 280 277 274 267 258 252 245 238 234 232 231 230 232 230 224 224 225 231 239 245 245 240 241 246 254 268 282 289 290 297 304 298 292 295 296 300 311 320 313 282 237 233 240 236 251
177 181 182 182 180 185 182 179 181 184 186 181 181 186 193 201 211 228 238 240 247 251 253 259 258 256 256 256 262 265 266 265 262 264 268 274 275 274 275 278 281 277 274 270 261 255 251 246 240 237 235 234 235 233 230 231 232 236 241 250 253 242 236 239 247 261 276 282 282 289 297 291 284 285 283 294 306 307 308 305 283 258 252 246 248
178 180 186 185 183 185 186 185 185 185 188 187 188 193 203 212 221 234 242 246 249 249 250 257 260 260 262 265 269 272 275 273 270 270 271 276 277 276 276 278 280 277 274 271 263 256 253 252 248 243 240 238 238 237 235 236 239 242 245 254 262 252 239 236 240 250 264 272 275 281 290 285 277 277 275 284 296 293 295 301 294 279 268 263 254
182 183 185 187 188 188 189 189 186 187 189 191 193 197 208 217 224 233 237 243 245 243 247 252 257 263 267 269 271 275 284 284 281 278 278 282 281 280 280 279 279 277 274 273 270 263 254 253 253 250 247 245 243 242 242 242 243 245 248 256 265 261 248 240 239 241 247 256 265 274 279 278 273 272 271 277 284 287 292 291 288 284 280 279 262
181 184 185 186 188 189 190 188 187 188 190 193 197 200 211 218 222 226 223 227 231 234 242 245 251 263 269 273 276 281 287 290 289 288 287 288 288 288 287 284 278 275 273 273 274 271 263 257 256 254 253 252 251 251 249 247 246 245 249 256 265 263 253 250 246 241 242 243 250 264 271 271 271 269 268 272 277 282 289 283 279 280 282 285 266
172 178 180 180 181 185 185 183 184 186 191 196 198 200 207 211 212 212 211 215 222 231 240 246 255 263 268 273 277 281 286 290 293 293 293 294 293 292 290 288 282 277 273 271 271 273 272 269 267 265 260 257 254 253 253 254 252 248 251 259 266 261 253 256 253 244 243 238 235 247 262 268 268 265 261 265 270 277 282 277 276 277 280 279 264
161 167 170 171 174 179 178 176 180 185 193 195 196 199 201 206 210 211 216 223 232 241 244 250 260 264 270 274 276 280 283 287 291 293 296 297 296 294 291 288 285 282 278 275 273 271 272 272 273 273 269 264 259 254 253 255 258 256 256 261 264 259 254 255 252 242 238 238 235 235 251 266 264 260 257 260 264 270 275 273 271 272 275 267 252
157 159 161 163 168 173 174 176 180 185 193 193 193 197 201 209 219 226 235 250 260 259 257 262 269 272 276 278 279 282 284 290 295 297 300 300 300 298 296 293 288 286 285 284 282 277 272 268 268 270 270 270 270 267 263 259 259 258 259 260 260 257 254 250 244 239 239 244 245 239 246 261 263 259 255 257 259 262 266 266 264 265 267 256 240
153 154 156 158 168 174 174 179 183 187 191 191 193 199 207 218 228 241 250 260 264 262 267 273 276 279 280 283 286 289 292 296 299 301 303 304 304 303 301 299 295 292 288 287 286 282 275 269 266 266 266 268 270 273 273 269 264 259 257 256 254 251 248 244 240 240 244 247 246 243 245 252 258 258 253 252 254 257 259 257 256 257 255 241 230
148 152 154 156 166 172 175 181 184 186 189 190 196 203 215 231 239 246 249 261 274 277 279 280 281 286 286 287 289 290 294 296 299 303 307 310 310 310 307 303 299 294 290 288 286 283 276 269 265 263 265 266 266 267 270 270 264 257 255 252 251 248 244 242 242 243 249 250 246 243 240 243 251 253 249 247 248 253 254 251 248 249 242 227 223
147 151 152 156 164 168 172 178 180 185 192 196 203 213 226 237 241 248 258 273 287 288 289 291 293 292 289 286 284 287 293 298 304 307 310 314 314 313 311 307 301 294 291 289 288 286 281 273 268 265 265 269 269 266 264 264 261 256 253 251 251 250 246 244 244 247 250 246 241 242 239 239 245 248 247 246 246 249 248 245 243 241 233 220 219
147 149 150 154 161 166 170 174 181 187 195 203 208 221 234 243 253 263 270 276 279 279 282 287 286 282 280 281 282 289 297 303 309 311 312 315 314 311 310 309 305 298 293 290 288 287 284 279 274 270 269 272 271 267 262 259 258 254 252 251 252 251 249 246 244 246 246 240 236 240 240 239 241 243 245 244 245 245 243 240 238 236 229 220 218
146 148 151 154 158 166 172 176 186 192 196 202 207 220 230 242 256 258 262 268 266 264 265 269 275 278 281 284 290 297 301 304 307 308 309 310 309 307 305 305 306 305 299 293 289 286 284 280 275 272 272 272 270 267 264 259 256 252 250 249 249 249 248 247 245 243 240 238 238 238 239 240 239 239 241 242 243 242 239 237 234 232 227 221 219
148 150 151 154 157 163 169 178 192 202 206 213 219 229 233 234 242 246 252 259 258 258 258 262 270 277 283 290 296 299 300 301 302 301 302 304 306 307 305 303 305 307 304 299 296 291 286 281 276 273 270 270 269 268 266 262 258 254 250 247 242 240 243 246 246 242 239 239 239 237 238 240 238 238 240 242 242 238 235 234 230 229 226 222 221
148 152 153 158 167 172 177 184 199 213 220 230 235 242 246 242 242 245 249 254 258 264 268 271 274 279 287 295 299 300 300 303 305 305 305 306 308 310 308 306 305 305 305 304 301 296 291 286 280 277 273 270 269 267 266 265 263 258 253 249 245 246 251 250 243 239 240 240 239 238 239 239 237 238 241 242 242 237 232 232 229 227 226 224 223
147 153 160 168 181 189 195 202 213 226 234 244 251 256 260 259 259 256 256 261 267 273 278 285 290 294 297 299 301 303 304 304 305 305 306 306 306 307 308 307 305 303 304 304 303 300 296 291 284 281 280 276 269 265 265 267 265 260 256 253 250 251 252 251 246 242 239 236 236 238 239 239 236 237 241 241 241 237 232 232 231 227 226 226 226
155 164 174 178 193 202 208 214 221 229 235 243 252 259 262 263 269 270 272 278 283 286 288 292 297 299 300 300 301 303 303 303 301 301 301 300 299 301 303 305 305 304 303 303 304 303 301 298 292 285 282 279 272 268 268 268 264 259 258 258 258 255 250 250 252 250 247 240 237 238 238 238 238 238 240 241 241 238 233 232 233 230 226 227 229
166 178 185 190 203 210 213 216 219 228 236 242 244 248 255 258 264 269 274 278 283 289 291 290 290 291 294 298 300 302 302 301 298 298 299 299 301 303 303 302 305 308 307 305 305 306 305 303 300 293 288 282 275 272 273 272 270 267 264 263 264 262 258 256 253 251 251 247 241 240 238 235 235 238 240 240 239 237 234 232 233 233 229 227 230
171 183 192 199 208 211 218 223 228 239 249 255 254 249 250 257 261 265 270 274 277 279 278 278 279 283 288 293 297 301 302 298 293 295 298 301 303 306 305 301 301 306 308 307 308 309 308 304 299 296 294 290 282 277 274 271 272 272 270 266 265 264 263 260 252 248 248 245 241 242 241 237 235 238 239 239 237 236 233 230 230 231 230 229 230
172 184 191 199 211 221 230 234 240 249 256 264 269 265 260 264 267 270 275 279 279 276 277 279 281 285 289 290 294 298 300 296 292 294 298 301 304 305 304 300 297 298 301 303 305 306 305 300 295 290 288 288 286 282 276 268 266 269 271 270 268 266 263 262 258 253 248 245 243 242 242 243 242 244 244 242 239 237 234 230 228 229 229 228 229